Time,TemperatureF,DewpointF,PressureIn,WindDirection,WindDirectionDegrees,WindSpeedMPH,WindSpeedGustMPH,Humidity,HourlyPrecipIn,Conditions,Clouds,dailyrainin,SoftwareType,DateUTC
2013-05-07 00:02:00,61.0,53.0,29.92,ENE,65,0.0,0.0,74,0.00,,,0.00,,2013-05-07 05:02:00,
2013-05-07 00:12:00,61.0,53.0,29.92,ENE,65,0.0,0.0,74,0.00,,,0.00,,2013-05-07 05:12:00,
2013-05-07 00:22:00,61.0,53.0,29.92,ENE,65,0.0,0.0,76,0.00,,,0.00,,2013-05-07 05:22:00,
2013-05-07 00:32:00,61.0,53.0,29.92,ENE,65,0.0,0.0,76,0.00,,,0.00,,2013-05-07 05:32:00,
2013-05-07 00:42:00,61.0,53.0,29.92,ENE,65,0.0,0.0,76,0.00,,,0.00,,2013-05-07 05:42:00,
2013-05-07 00:52:00,60.0,53.0,29.92,ENE,65,0.0,0.0,78,0.00,,,0.00,,2013-05-07 05:52:00,
2013-05-07 01:02:00,60.0,53.0,29.92,ENE,65,0.0,0.0,79,0.00,,,0.00,,2013-05-07 06:02:00,
2013-05-07 01:12:00,60.0,53.0,29.92,ENE,65,0.0,0.0,79,0.00,,,0.00,,2013-05-07 06:12:00,
2013-05-07 01:22:00,60.0,53.0,29.92,ENE,65,0.0,0.0,79,0.00,,,0.00,,2013-05-07 06:22:00,
2013-05-07 01:32:00,59.0,53.0,29.91,ENE,65,0.0,0.0,80,0.00,,,0.00,,2013-05-07 06:32:00,
2013-05-07 01:42:00,59.0,53.0,29.91,ENE,65,0.0,0.0,80,0.00,,,0.00,,2013-05-07 06:42:00,
2013-05-07 01:52:00,59.0,53.0,29.91,ENE,65,0.0,0.0,81,0.00,,,0.00,,2013-05-07 06:52:00,
2013-05-07 02:02:00,59.0,54.0,29.91,ENE,65,0.0,0.0,82,0.00,,,0.00,,2013-05-07 07:02:00,
2013-05-07 02:11:00,59.0,54.0,29.91,ENE,65,0.0,0.0,82,0.00,,,0.00,,2013-05-07 07:11:00,
2013-05-07 02:22:00,58.0,53.0,29.91,ENE,65,0.0,0.0,83,0.00,,,0.00,,2013-05-07 07:22:00,
2013-05-07 02:31:00,58.0,53.0,29.91,ENE,65,0.0,0.0,82,0.00,,,0.00,,2013-05-07 07:31:00,
2013-05-07 02:42:00,58.0,53.0,29.91,ENE,65,0.0,0.0,82,0.00,,,0.00,,2013-05-07 07:42:00,
2013-05-07 02:52:00,58.0,53.0,29.91,ENE,65,0.0,0.0,83,0.00,,,0.00,,2013-05-07 07:52:00,
2013-05-07 03:02:00,58.0,53.0,29.91,ENE,65,0.0,0.0,83,0.00,,,0.00,,2013-05-07 08:02:00,
2013-05-07 03:11:00,58.0,53.0,29.91,ENE,65,0.0,0.0,83,0.00,,,0.00,,2013-05-07 08:11:00,
2013-05-07 03:21:00,58.0,53.0,29.91,ENE,65,0.0,1.0,82,0.00,,,0.00,,2013-05-07 08:21:00,
2013-05-07 03:31:00,58.0,52.0,29.92,ENE,65,0.0,0.0,81,0.00,,,0.00,,2013-05-07 08:31:00,
2013-05-07 03:42:00,58.0,52.0,29.92,ENE,65,0.0,0.0,81,0.00,,,0.00,,2013-05-07 08:42:00,
2013-05-07 03:52:00,58.0,52.0,29.91,ENE,65,0.0,3.0,80,0.00,,,0.00,,2013-05-07 08:52:00,
2013-05-07 04:01:00,57.0,51.0,29.91,ENE,65,0.0,1.0,79,0.00,,,0.00,,2013-05-07 09:01:00,
2013-05-07 04:11:00,57.0,51.0,29.91,ENE,65,0.0,1.0,79,0.00,,,0.00,,2013-05-07 09:11:00,
2013-05-07 04:22:00,57.0,49.0,29.92,ENE,65,2.0,5.0,75,0.00,,,0.00,,2013-05-07 09:22:00,
2013-05-07 04:33:00,57.0,49.0,29.92,NNW,336,2.0,8.0,75,0.00,,,0.00,,2013-05-07 09:33:00,
2013-05-07 04:42:00,57.0,49.0,29.92,NNW,336,2.0,8.0,75,0.00,,,0.00,,2013-05-07 09:42:00,
2013-05-07 04:52:00,57.0,49.0,29.92,NNW,331,0.0,5.0,74,0.00,,,0.00,,2013-05-07 09:52:00,
2013-05-07 05:03:00,57.0,49.0,29.92,NNW,331,0.0,3.0,74,0.00,,,0.00,,2013-05-07 10:03:00,
2013-05-07 05:12:00,57.0,49.0,29.92,NNW,331,0.0,3.0,74,0.00,,,0.00,,2013-05-07 10:12:00,
2013-05-07 05:23:00,57.0,49.0,29.92,NNW,331,0.0,1.0,74,0.00,,,0.00,,2013-05-07 10:23:00,
2013-05-07 05:32:00,56.0,48.0,29.92,NNW,331,0.0,1.0,74,0.00,,,0.00,,2013-05-07 10:32:00,
2013-05-07 05:42:00,56.0,49.0,29.93,NNW,331,0.0,0.0,76,0.00,,,0.00,,2013-05-07 10:42:00,
2013-05-07 05:52:00,56.0,49.0,29.93,NNW,331,0.0,0.0,76,0.00,,,0.00,,2013-05-07 10:52:00,
2013-05-07 06:02:00,55.0,48.0,29.93,NNW,331,0.0,0.0,76,0.00,,,0.00,,2013-05-07 11:02:00,
2013-05-07 06:12:00,55.0,48.0,29.93,NNW,331,0.0,0.0,76,0.00,,,0.00,,2013-05-07 11:12:00,
2013-05-07 06:22:00,55.0,48.0,29.93,NNW,331,0.0,1.0,77,0.00,,,0.00,,2013-05-07 11:22:00,
2013-05-07 06:32:00,55.0,48.0,29.93,NNW,331,0.0,0.0,76,0.00,,,0.00,,2013-05-07 11:32:00,
2013-05-07 06:42:00,55.0,48.0,29.93,NNW,331,0.0,0.0,76,0.00,,,0.00,,2013-05-07 11:42:00,
2013-05-07 06:52:00,55.0,47.0,29.93,NNW,331,3.0,5.0,75,0.00,,,0.00,,2013-05-07 11:52:00,
2013-05-07 07:02:00,55.0,46.0,29.93,North,349,3.0,8.0,72,0.00,,,0.00,,2013-05-07 12:02:00,
2013-05-07 07:11:00,55.0,46.0,29.93,North,349,3.0,8.0,72,0.00,,,0.00,,2013-05-07 12:11:00,
2013-05-07 07:21:00,55.0,45.0,29.94,NNW,347,2.0,8.0,70,0.00,,,0.00,,2013-05-07 12:21:00,
2013-05-07 07:32:00,56.0,46.0,29.94,NNE,30,0.0,5.0,70,0.00,,,0.00,,2013-05-07 12:32:00,
2013-05-07 07:42:00,56.0,46.0,29.94,NNE,30,0.0,5.0,70,0.00,,,0.00,,2013-05-07 12:42:00,
2013-05-07 07:52:00,56.0,46.0,29.95,North,2,5.0,6.0,70,0.00,,,0.00,,2013-05-07 12:52:00,
2013-05-07 08:02:00,56.0,46.0,29.95,NW,319,5.0,6.0,70,0.00,,,0.00,,2013-05-07 13:02:00,
2013-05-07 08:11:00,56.0,46.0,29.95,NW,319,5.0,6.0,70,0.00,,,0.00,,2013-05-07 13:11:00,
2013-05-07 08:21:00,56.0,46.0,29.96,North,5,2.0,6.0,70,0.00,,,0.00,,2013-05-07 13:21:00,
2013-05-07 08:32:00,56.0,46.0,29.96,NNE,31,2.0,5.0,70,0.00,,,0.00,,2013-05-07 13:32:00,
2013-05-07 08:42:00,56.0,46.0,29.96,NNE,31,2.0,5.0,70,0.00,,,0.00,,2013-05-07 13:42:00,
2013-05-07 08:52:00,57.0,46.0,29.96,NNE,19,5.0,8.0,67,0.00,,,0.00,,2013-05-07 13:52:00,
2013-05-07 09:02:00,57.0,46.0,29.96,NE,49,3.0,9.0,66,0.00,,,0.00,,2013-05-07 14:02:00,
2013-05-07 09:11:00,57.0,46.0,29.96,NE,49,3.0,9.0,66,0.00,,,0.00,,2013-05-07 14:11:00,
2013-05-07 09:21:00,57.0,46.0,29.97,NE,44,3.0,8.0,66,0.00,,,0.00,,2013-05-07 14:21:00,
2013-05-07 09:32:00,58.0,47.0,29.97,NNE,18,2.0,6.0,66,0.00,,,0.00,,2013-05-07 14:32:00,
2013-05-07 09:42:00,58.0,47.0,29.97,NNE,18,2.0,6.0,66,0.00,,,0.00,,2013-05-07 14:42:00,
2013-05-07 09:52:00,59.0,47.0,29.96,NNE,14,5.0,8.0,64,0.00,,,0.00,,2013-05-07 14:52:00,
2013-05-07 10:01:00,59.0,46.0,29.96,North,4,2.0,9.0,62,0.00,,,0.00,,2013-05-07 15:01:00,
2013-05-07 10:12:00,59.0,46.0,29.96,North,4,2.0,9.0,62,0.00,,,0.00,,2013-05-07 15:12:00,
2013-05-07 10:21:00,61.0,47.0,29.96,NNE,17,5.0,8.0,60,0.00,,,0.00,,2013-05-07 15:21:00,
2013-05-07 10:33:00,62.0,47.0,29.96,North,349,4.0,10.0,58,0.00,,,0.00,,2013-05-07 15:33:00,
2013-05-07 10:42:00,62.0,47.0,29.96,North,349,4.0,10.0,58,0.00,,,0.00,,2013-05-07 15:42:00,
2013-05-07 10:53:00,62.0,47.0,29.96,North,349,4.0,10.0,58,0.00,,,0.00,,2013-05-07 15:53:00,
2013-05-07 11:03:00,64.0,48.0,29.95,ENE,61,3.0,8.0,57,0.00,,,0.00,,2013-05-07 16:03:00,
2013-05-07 11:12:00,64.0,48.0,29.95,ENE,61,3.0,8.0,57,0.00,,,0.00,,2013-05-07 16:12:00,
2013-05-07 11:22:00,67.0,51.0,29.95,NE,34,2.0,8.0,57,0.00,,,0.00,,2013-05-07 16:22:00,
2013-05-07 11:32:00,67.0,51.0,29.95,NE,38,6.0,10.0,57,0.00,,,0.00,,2013-05-07 16:32:00,
2013-05-07 11:41:00,67.0,51.0,29.95,NE,38,6.0,10.0,57,0.00,,,0.00,,2013-05-07 16:41:00,
2013-05-07 11:52:00,67.0,51.0,29.95,NE,38,6.0,10.0,57,0.00,,,0.00,,2013-05-07 16:52:00,
2013-05-07 12:01:00,69.0,54.0,29.95,ENE,69,7.0,10.0,58,0.00,,,0.00,,2013-05-07 17:01:00,
2013-05-07 12:12:00,69.0,54.0,29.95,ENE,69,7.0,10.0,58,0.00,,,0.00,,2013-05-07 17:12:00,
2013-05-07 12:21:00,69.0,54.0,29.94,NE,53,4.0,8.0,58,0.00,,,0.00,,2013-05-07 17:21:00,
2013-05-07 12:31:00,71.0,54.0,29.94,NNE,27,2.0,8.0,56,0.00,,,0.00,,2013-05-07 17:31:00,
2013-05-07 12:41:00,71.0,54.0,29.94,NNE,27,2.0,8.0,56,0.00,,,0.00,,2013-05-07 17:41:00,
2013-05-07 12:52:00,72.0,55.0,29.93,NNE,15,5.0,15.0,55,0.00,,,0.00,,2013-05-07 17:52:00,
2013-05-07 13:01:00,73.0,55.0,29.93,North,9,11.0,15.0,53,0.00,,,0.00,,2013-05-07 18:01:00,
2013-05-07 13:11:00,73.0,55.0,29.93,North,9,11.0,15.0,53,0.00,,,0.00,,2013-05-07 18:11:00,
2013-05-07 13:21:00,73.0,53.0,29.92,NE,43,7.0,12.0,50,0.00,,,0.00,,2013-05-07 18:21:00,
2013-05-07 13:31:00,73.0,55.0,29.92,ENE,76,3.0,10.0,53,0.00,,,0.00,,2013-05-07 18:31:00,
2013-05-07 13:41:00,73.0,55.0,29.92,ENE,76,3.0,10.0,53,0.00,,,0.00,,2013-05-07 18:41:00,
2013-05-07 13:52:00,73.0,53.0,29.92,East,79,2.0,9.0,50,0.00,,,0.00,,2013-05-07 18:52:00,
2013-05-07 14:02:00,74.0,53.0,29.92,ENE,75,4.0,9.0,48,0.00,,,0.00,,2013-05-07 19:02:00,
2013-05-07 14:11:00,74.0,53.0,29.92,ENE,75,4.0,9.0,48,0.00,,,0.00,,2013-05-07 19:11:00,
2013-05-07 14:21:00,74.0,53.0,29.91,NE,48,1.0,6.0,48,0.00,,,0.00,,2013-05-07 19:21:00,
2013-05-07 14:32:00,74.0,54.0,29.91,ENE,66,3.0,8.0,49,0.00,,,0.00,,2013-05-07 19:32:00,
2013-05-07 14:42:00,74.0,54.0,29.91,ENE,66,3.0,8.0,49,0.00,,,0.00,,2013-05-07 19:42:00,
2013-05-07 14:52:00,74.0,53.0,29.91,NE,34,2.0,6.0,48,0.00,,,0.00,,2013-05-07 19:52:00,
2013-05-07 15:02:00,74.0,52.0,29.91,NE,49,2.0,5.0,46,0.00,,,0.00,,2013-05-07 20:02:00,
2013-05-07 15:11:00,74.0,52.0,29.91,NE,49,2.0,5.0,46,0.00,,,0.00,,2013-05-07 20:11:00,
2013-05-07 15:22:00,74.0,51.0,29.90,SE,132,2.0,5.0,44,0.00,,,0.00,,2013-05-07 20:22:00,
2013-05-07 15:32:00,74.0,51.0,29.90,ENE,75,4.0,8.0,44,0.00,,,0.00,,2013-05-07 20:32:00,
2013-05-07 15:42:00,74.0,51.0,29.90,ENE,75,4.0,8.0,44,0.00,,,0.00,,2013-05-07 20:42:00,
2013-05-07 15:52:00,74.0,52.0,29.90,NE,53,2.0,10.0,46,0.00,,,0.00,,2013-05-07 20:52:00,
2013-05-07 16:01:00,74.0,51.0,29.90,NNE,25,3.0,6.0,45,0.00,,,0.00,,2013-05-07 21:01:00,
2013-05-07 16:11:00,74.0,51.0,29.90,NNE,25,3.0,6.0,45,0.00,,,0.00,,2013-05-07 21:11:00,
2013-05-07 16:22:00,74.0,51.0,29.89,ENE,66,1.0,10.0,45,0.00,,,0.00,,2013-05-07 21:22:00,
2013-05-07 16:32:00,74.0,51.0,29.89,ENE,66,2.0,5.0,44,0.00,,,0.00,,2013-05-07 21:32:00,
2013-05-07 16:42:00,74.0,51.0,29.89,ENE,66,2.0,5.0,44,0.00,,,0.00,,2013-05-07 21:42:00,
2013-05-07 16:53:00,75.0,50.0,29.89,ENE,69,2.0,5.0,41,0.00,,,0.00,,2013-05-07 21:53:00,
2013-05-07 17:02:00,75.0,50.0,29.89,ENE,69,0.0,3.0,41,0.00,,,0.00,,2013-05-07 22:02:00,
2013-05-07 17:13:00,75.0,50.0,29.89,ENE,69,0.0,3.0,41,0.00,,,0.00,,2013-05-07 22:13:00,
2013-05-07 17:22:00,75.0,50.0,29.89,ENE,66,2.0,10.0,42,0.00,,,0.00,,2013-05-07 22:22:00,
2013-05-07 17:33:00,75.0,50.0,29.89,NE,47,2.0,8.0,42,0.00,,,0.00,,2013-05-07 22:33:00,
2013-05-07 17:42:00,75.0,50.0,29.89,NE,47,2.0,8.0,42,0.00,,,0.00,,2013-05-07 22:42:00,
2013-05-07 17:52:00,75.0,50.0,29.89,North,355,0.0,5.0,41,0.00,,,0.00,,2013-05-07 22:52:00,
2013-05-07 18:02:00,75.0,51.0,29.89,North,355,0.0,1.0,43,0.00,,,0.00,,2013-05-07 23:02:00,
2013-05-07 18:12:00,75.0,51.0,29.89,North,355,0.0,1.0,43,0.00,,,0.00,,2013-05-07 23:12:00,
2013-05-07 18:21:00,75.0,50.0,29.89,NW,325,0.0,5.0,42,0.00,,,0.00,,2013-05-07 23:21:00,
2013-05-07 18:32:00,75.0,52.0,29.89,NW,325,0.0,1.0,44,0.00,,,0.00,,2013-05-07 23:32:00,
2013-05-07 18:41:00,75.0,52.0,29.89,NW,325,0.0,1.0,45,0.00,,,0.00,,2013-05-07 23:41:00,
2013-05-07 18:52:00,75.0,52.0,29.89,NW,325,0.0,1.0,45,0.00,,,0.00,,2013-05-07 23:52:00,
2013-05-07 19:01:00,75.0,53.0,29.88,NW,325,0.0,0.0,46,0.00,,,0.00,,2013-05-08 00:01:00,
2013-05-07 19:11:00,75.0,53.0,29.88,NW,325,0.0,0.0,46,0.00,,,0.00,,2013-05-08 00:11:00,
2013-05-07 19:21:00,74.0,52.0,29.88,NW,325,0.0,1.0,47,0.00,,,0.00,,2013-05-08 00:21:00,
2013-05-07 19:32:00,73.0,54.0,29.89,NW,325,0.0,0.0,51,0.00,,,0.00,,2013-05-08 00:32:00,
2013-05-07 19:42:00,73.0,54.0,29.89,NW,325,0.0,0.0,51,0.00,,,0.00,,2013-05-08 00:42:00,
2013-05-07 19:52:00,71.0,54.0,29.89,NW,325,0.0,1.0,56,0.00,,,0.00,,2013-05-08 00:52:00,
2013-05-07 20:02:00,70.0,54.0,29.89,NW,325,0.0,1.0,57,0.00,,,0.00,,2013-05-08 01:02:00,
2013-05-07 20:11:00,70.0,54.0,29.89,NW,325,0.0,1.0,57,0.00,,,0.00,,2013-05-08 01:11:00,
2013-05-07 20:21:00,68.0,54.0,29.90,NW,325,0.0,3.0,61,0.00,,,0.00,,2013-05-08 01:21:00,
2013-05-07 20:32:00,67.0,53.0,29.90,NW,325,0.0,0.0,61,0.00,,,0.00,,2013-05-08 01:32:00,
2013-05-07 20:42:00,67.0,53.0,29.90,NW,325,0.0,0.0,61,0.00,,,0.00,,2013-05-08 01:42:00,
2013-05-07 20:52:00,65.0,53.0,29.91,NW,325,0.0,1.0,64,0.00,,,0.00,,2013-05-08 01:52:00,
2013-05-07 21:01:00,65.0,53.0,29.91,NW,325,0.0,0.0,66,0.00,,,0.00,,2013-05-08 02:01:00,
2013-05-07 21:12:00,65.0,53.0,29.91,NW,325,0.0,0.0,66,0.00,,,0.00,,2013-05-08 02:12:00,
2013-05-07 21:22:00,65.0,55.0,29.92,NW,325,0.0,1.0,69,0.00,,,0.00,,2013-05-08 02:22:00,
2013-05-07 21:31:00,65.0,55.0,29.92,NW,325,0.0,0.0,69,0.00,,,0.00,,2013-05-08 02:31:00,
2013-05-07 21:42:00,65.0,55.0,29.92,NW,325,0.0,0.0,69,0.00,,,0.00,,2013-05-08 02:42:00,
2013-05-07 21:52:00,64.0,53.0,29.92,NW,325,0.0,0.0,68,0.00,,,0.00,,2013-05-08 02:52:00,
2013-05-07 22:01:00,64.0,53.0,29.92,NW,325,0.0,0.0,68,0.00,,,0.00,,2013-05-08 03:01:00,
2013-05-07 22:11:00,64.0,53.0,29.92,NW,325,0.0,0.0,68,0.00,,,0.00,,2013-05-08 03:11:00,
2013-05-07 22:21:00,63.0,53.0,29.92,NW,325,0.0,0.0,69,0.00,,,0.00,,2013-05-08 03:21:00,
2013-05-07 22:32:00,63.0,53.0,29.92,NW,325,0.0,0.0,71,0.00,,,0.00,,2013-05-08 03:32:00,
2013-05-07 22:43:00,63.0,53.0,29.92,NW,325,0.0,0.0,71,0.00,,,0.00,,2013-05-08 03:43:00,
2013-05-07 22:52:00,62.0,53.0,29.93,NW,325,0.0,0.0,72,0.00,,,0.00,,2013-05-08 03:52:00,
2013-05-07 23:02:00,62.0,53.0,29.93,NW,325,0.0,0.0,73,0.00,,,0.00,,2013-05-08 04:02:00,
2013-05-07 23:13:00,62.0,53.0,29.93,NW,325,0.0,0.0,73,0.00,,,0.00,,2013-05-08 04:13:00,
2013-05-07 23:23:00,62.0,53.0,29.92,NW,325,0.0,0.0,72,0.00,,,0.00,,2013-05-08 04:23:00,
2013-05-07 23:33:00,61.0,53.0,29.92,NW,325,0.0,0.0,74,0.00,,,0.00,,2013-05-08 04:33:00,
2013-05-07 23:42:00,61.0,53.0,29.92,NW,325,0.0,0.0,74,0.00,,,0.00,,2013-05-08 04:42:00,
2013-05-07 23:53:00,61.0,53.0,29.92,NW,325,0.0,0.0,76,0.00,,,0.00,,2013-05-08 04:53:00,